Regional Weather Roundup
Issued by NWS Cleveland, OH

Home | Current Version | Previous Version | Text Only | Print | Product List | Glossary Off
Versions: 1 2 3 4 5 6 7 8 9 10 11 12 13 14 15 16 17 18 19 20 21 22 23 24 25 26 27 28 29 30 31 32 33 34 35 36 37 38 39 40 41 42 43 44 45 46 47 48 49 50

000
ASUS41 KCLE 031502
RWRCLE
OHIO REGIONAL WEATHER ROUNDUP
NATIONAL WEATHER SERVICE CLEVELAND, OH
1100 AM EDT THU SEP 03 2015

NOTE: "FAIR" INDICATES FEW OR NO CLOUDS BELOW 12,000 FEET WITH NO
SIGNIFICANT WEATHER AND/OR OBSTRUCTIONS TO VISIBILITY.

OHZ001>008-015>018-024>027-034-035-043-044-031600-
   NORTHWEST OHIO

CITY           SKY/WX    TMP DP  RH WIND       PRES   REMARKS
DEFIANCE       MOSUNNY   81  69  67 S6        30.00S
FINDLAY        MOSUNNY   82  70  66 VRB6      29.99F
TOLEDO EXPRESS MOSUNNY   83  65  54 SW7       29.97F
TOLEDO EXEC    MOSUNNY   79  68  69 SW3       29.98F
LIMA           SUNNY     81  70  69 W7        30.02S
$$

OHZ009>014-019>023-028>033-038-089-031600-
   NORTHEAST OHIO

CITY           SKY/WX    TMP DP  RH WIND       PRES   REMARKS
CLE-HOPKINS    MOSUNNY   82  70  66 SW6       30.00F
CLE-LAKEFRONT  SUNNY     80  71  74 W8        29.97F
CUY CO. ARPT   MOSUNNY   81  73  78 NW12      30.00S
LORAIN-ELYRIA  SUNNY     81  69  67 CALM      30.00F
ASHTABULA      PTSUNNY   78  73  84 W5        30.00S
AKRON-CANTON   PTSUNNY   83  69  62 W7        30.01F
WOOSTER        MOSUNNY   81  69  67 CALM      30.02F
MANSFIELD      SUNNY     82  70  66 W7        30.03F
YOUNGSTOWN     MOSUNNY   78  69  73 NW5       30.01S
$$

OHZ042-051>053-060>062-070>072-077>081-031600-
  SOUTHWEST OHIO

CITY           SKY/WX    TMP DP  RH WIND       PRES   REMARKS
CINC-COVINGTON SUNNY     84  70  62 W3        30.05S
CINC-LUNKEN    SUNNY     82  71  69 SW3       30.04S
HAMILTON       SUNNY     82  71  69 CALM      30.05S
DAYTON         SUNNY     83  70  64 W7        30.05S
WRIGHT-PAT AFB SUNNY     81  71  73 VRB3      30.03F
DAYTON GENERAL SUNNY     80  69  69 VRB3      30.04F
WILMINGTON     SUNNY     81  69  67 NW7       30.05S
$$

OHZ036-037-039>041-045>050-054>059-063>069-073>076-082>088-031600-
  CENTRAL AND SOUTHEAST OHIO

CITY           SKY/WX    TMP DP  RH WIND       PRES   REMARKS
COLUMBUS       PTSUNNY   79  69  71 CALM      30.02S
OSU AIRPORT    SUNNY     83  70  64 VRB5      30.02F
BOLTON FIELD   SUNNY     81  72  74 NW3       30.04S
RICKENBACK AFB SUNNY     77  69  77 W5        30.02F
NEWARK         SUNNY     82  70  66 N5        30.02S
MARION         SUNNY     81  69  67 NW6       30.02F
LANCASTER      SUNNY     81  69  67 N7        30.03S
ZANESVILLE     SUNNY     81  67  62 CALM      30.02S
NEW PHILLY     MOSUNNY   83  70  64 VRB7      30.01S
$$


USA.gov is the U.S. government's official web portal to all federal, state and local government web resources and services.